Location: St. Louis
(38.6270°N, 90.1994°W)
Time: 18:22:15
(UTC-06:00)

Courier 1B - Pass Details

Date: 08 December 2021
Orbit: 962 x 1209 km, 28.3° (Epoch: 26 January)

Event Time Altitude Azimuth Distance (km) Brightness Sun altitude
Rises 18:42:17 0° 263° (W) 4,029 12.2 -23.3°
Reaches altitude 10° 18:45:38 10° 251° (WSW) 3,030 11.1 -23.9°
Maximum altitude 18:51:37 26° 198° (SSW) 1,992 9.3 -25.1°
Enters shadow 18:56:11 14° 150° (SSE) 2,589 9.5 -26.0°
